Regional Weather Roundup
Issued by NWS Northern Indiana

Home | Current Version | Previous Version | Text Only | Print | Product List | Glossary Off
Versions: 1 2 3 4 5 6 7 8 9 10 11 12 13 14 15 16 17 18 19 20 21 22 23 24 25 26 27 28 29 30 31 32 33 34 35 36 37 38 39 40 41 42 43 44 45 46 47 48 49 50

000
ASUS43 KIWX 021400
RWRIWX

KIWX WEATHER ROUNDUP
NATIONAL WEATHER SERVICE NORTHERN INDIANA
1000 AM EDT THU OCT 02 2014

NOTE: "FAIR" INDICATES FEW OR NO CLOUDS BELOW 12,000 FEET WITH NO
SIGNIFICANT WEATHER AND/OR OBSTRUCTIONS TO VISIBILITY.

* THESE STATIONS ARE NOT UNDER NWS QUALITY CONTROL. THEY ALSO MAY NOT
  REPORT WEATHER SUCH AS PRECIPITATION OR FOG.

INZ001>027-021500-
NORTHERN INDIANA

CITY           SKY/WX    TMP DP  RH WIND       PRES   REMARKS
GARY*          CLOUDY    64  61  88 VRB5      29.90S
VALPARAISO     CLOUDY    64  60  87 SE7       29.91S
SOUTH BEND     NOT AVBL
WARSAW*        LGT RAIN  61  54  77 SE5       29.94F
ANGOLA*        MOSUNNY   57  52  82 S9        29.98F
FORT WAYNE     CLOUDY    64  55  72 S9        29.99F
PERU/GRISSOM   LGT RAIN  63  63 100 SE9       29.93F

$$
INZ028>050-021500-
CENTRAL INDIANA

CITY           SKY/WX    TMP DP  RH WIND       PRES   REMARKS
LAFAYETTE      CLOUDY    66  63  90 S9        29.89F
KOKOMO*        CLOUDY    61  55  82 S10       29.95F
MUNCIE*        CLOUDY    67  55  65 W9        30.01R
INDIANAPOLIS   LGT RAIN  62  58  86 SE8       29.98F FOG

$$
MIZ043>046-050>051-056>058-064>065-071>073-077>080-021500-
SOUTHWEST LOWER MICHIGAN

CITY           SKY/WX    TMP DP  RH WIND       PRES   REMARKS
BATTLE CREEK   CLOUDY    61  52  72 S9        29.96S
BENTON HARBOR  CLOUDY    61  56  83 SE8       29.91S
COLDWATER*     CLOUDY    61  54  77 SE8       29.96F
HILLSDALE*     CLOUDY    59  55  87 SE7       29.99F
GRAND RAPIDS   LGT RAIN  61  55  81 CALM      29.95R
KALAMAZOO      SUNNY     61  52  72 S6        29.96S
STURGIS*       CLOUDY    59  54  82 SE5       29.95F
THREE RIVERS*  FAIR      61  53  75 S7        29.95S

$$
OHZ001>008-015>018-024>025-021500-
NORTHWEST OHIO

CITY           SKY/WX    TMP DP  RH WIND       PRES   REMARKS
DEFIANCE       CLOUDY    63  54  72 SE6       29.99F
FINDLAY        PTSUNNY   62  53  72 SE12      30.01F
TOLEDO EXPRESS PTSUNNY   60  54  80 SE5       30.01F
TOLEDO METCALF MOSUNNY   61  53  75 SE8       30.03F
LIMA           CLOUDY    67  57  70 S12       30.02F

$$
AND FOR LAKE MICHIGAN COASTAL AND OPEN LAKE BUOY OBSERVATIONS

STATION/POSITION TEMP    WIND        PRES    VSBY  WAVE
                 AIR SEA DIR/SP/G                  HT/PER
                 (F)     (DEG/KT/KT) (MB)    (MI)  (FT/S)
CALUMET HARBOR    65     180/  4/  6 1011.1S
MICHIGAN CITY     63     140/ 12/ 16   N/A
SAINT JOSEPH      61      CALM  /  6 1013.5S
SOUTH LAKE BUOY   63 62  160/ 19/ 21 1011.8F         3/ 5
4 MI NW BRIDGMAN  63 63  160/  8/ 12   N/A           1/ 2
MICHIGAN CITY     63 64  180/  8/ 10   N/A           1/ 2
MICHIGAN CITY CG     70                N/A    3 1/2  1

$$
&&


USA.gov is the U.S. government's official web portal to all federal, state and local government web resources and services.